Location: Unspecified
(33.4390°N, 83.7350°W)
Time: 16:41:42
(UTC-04:00)

Daily predictions for brighter satellites

Satellite Brightness Start Highest point End
(mag) Time Altitude Azimuth Time Altitude Azimuth Time Altitude Azimuth
ATLAS 2A CENTAUR R/B 4.1 20:46:25 10° WSW 20:53:03 62° SSE 21:20:19 10° E
Cosmos 1758 Rocket 4.5 21:10:05 10° SSW 21:14:24 54° W 21:18:48 10° N
OAO 3 Rocket 3.2 21:12:45 10° W 21:17:24 73° SSW 21:22:06 10° ESE
Cosmos 1707 2.7 21:14:22 10° S 21:18:15 87° E 21:22:10 10° N
Cosmos 2333 Rocket 2.7 21:17:36 10° N 21:23:03 46° ENE 21:28:26 10° SE
Milstar 3 Cent rocket 3.4 21:21:45 10° WSW 21:28:05 64° S 21:41:08 10° E
Cosmos 2219 Rocket 2.3 21:23:32 10° NNW 21:29:11 66° ENE 21:34:46 10° SSE
Cosmos 1939 Rocket 3.1 21:30:15 10° SSE 21:34:04 50° ENE 21:37:57 10° N
Helios 1A 3.2 21:32:55 10° SSE 21:36:57 54° ENE 21:41:00 10° N
USA 234 3.2 21:37:33 10° NE 21:44:04 68° SE 21:50:34 10° SSW
ERS-1 Rocket 3.9 21:41:39 13° SE 21:45:24 31° ENE 21:49:49 10° N
Cosmos 2082 3.6 21:41:33 10° SSW 21:47:09 85° ESE 21:52:48 10° NNE
Helios 1B rocket 2.5 21:44:07 10° NNE 21:48:17 86° WNW 21:52:25 10° SSW
USA 186 3.4 21:48:19 10° SSW 21:50:24 23° W 21:52:23 10° NW
SAR-Lupe-4 3.7 21:48:27 15° SSE 21:51:13 54° ENE 21:54:44 10° N
Cosmos 1340 Rocket 3.2 21:49:56 11° SSE 21:53:35 44° E 21:57:26 10° NNE
SPOT 5 4.5 21:51:11 13° ESE 21:53:39 19° ENE 21:57:04 10° NNE
Tiangong 1 1.9 21:51:38 10° WSW 21:54:20 46° NNW 21:57:02 10° NE
SL-8 R/B 4.4 21:50:20 10° NW 21:54:56 45° NNE 21:58:31 16° ESE
Cosmos 2297 Rocket 2.2 21:50:10 10° SSW 21:55:48 86° WNW 22:01:30 10° NNE
Cosmos 676 Rocket 4.3 21:50:44 10° SSW 21:55:58 71° WNW 22:01:11 10° NNE
Cosmos-2242 4.0 21:52:43 10° NNW 21:56:48 46° W 22:00:53 10° SSW
SEDSat Delta rocket 3.1 21:53:59 10° W 21:58:13 52° SSW 22:00:39 22° ESE
Okean 3 Rocket 4.2 21:57:06 17° SSE 22:00:04 37° E 22:04:12 10° NNE
Lacrosse 4 Rocket 2.8 21:58:01 10° SW 22:01:59 43° WNW 22:06:06 10° N
DELTA 2 R/B (1) 3.8 21:57:34 10° WNW 22:03:05 58° SSW 22:06:45 21° SE
ATLAS 2AS CENTAUR R/B 4.1 21:56:54 10° NW 22:03:49 36° WSW 22:10:14 10° S
Cosmos 1184 Rocket 2.7 22:03:57 13° S 22:06:52 80° E 22:10:14 10° N
Cosmos 1076 Rocket 4.4 22:05:21 23° SE 22:07:04 30° E 22:10:54 10° NNE
NOSS 3-4 (A) 4.2 22:00:15 10° NNW 22:07:12 52° NE 22:12:20 20° SE
NOSS 3-4 (C) 4.2 22:00:21 10° NNW 22:07:17 52° NE 22:12:26 20° SE
SAR-Lupe-1 4.0 22:08:09 22° SSE 22:10:22 86° ENE 22:13:57 10° NNW
Atlas Centaur 2 1.1 22:07:54 10° WSW 22:11:23 52° S 22:12:48 31° ESE
Spot 1 4.4 22:10:03 14° S 22:13:29 59° WSW 22:17:33 10° NNW
CZ-3B R/B 3.1 22:11:38 10° SW 22:14:01 78° SE 22:20:26 10° NE
Cosmos 1980 3.8 22:11:36 10° NNW 22:17:17 79° WSW 22:21:17 20° SSE
Resurs 01 Rocket 4.3 22:14:56 10° SW 22:17:30 15° W 22:20:04 10° WNW
Aureole 2 Rocket 3.0 22:13:39 10° NNW 22:17:41 64° WSW 22:19:57 23° S
CZ-4B DEB 3.7 22:18:21 19° SSW 22:20:04 40° W 22:22:54 10° NNW
Cosmos 2221 2.9 22:16:14 10° N 22:20:27 45° E 22:22:02 31° SE
MetOp-B 4.3 22:17:49 25° SE 22:20:48 55° ENE 22:26:02 10° N
Envisat 4.4 22:17:22 10° SSW 22:22:00 35° W 22:26:39 10° NNW
USA 245 4.0 22:22:16 25° ENE 22:22:22 25° ENE 22:25:16 10° NNE
Skynet4D Del rocket 4.3 22:16:55 10° WSW 22:22:46 47° S 22:26:19 26° ESE
Cosmos 1242 Rocket 3.9 22:20:21 10° NNE 22:23:27 25° ENE 22:23:41 25° E
ATLAS 5 CENTAUR R/B 1.6 22:19:31 10° SSW 22:24:04 82° ESE 22:28:58 10° NNE
Cosmos 1356 Rocket 3.8 22:23:49 34° SE 22:25:07 45° E 22:29:12 10° NNE
USA 32 4.2 22:20:10 10° S 22:25:23 74° W 22:30:38 10° N
Cosmos 1766 Rocket 4.3 22:25:02 30° ESE 22:25:39 32° E 22:29:30 10° NNE
Cosmos 2237 Rocket 2.4 22:22:39 10° NNW 22:28:14 69° WSW 22:31:49 23° S
Cosmos 2100 Rocket 4.1 22:27:43 10° N 22:33:56 58° E 22:37:02 30° SSE
Cosmos 1867 3.5 22:31:06 10° SSW 22:36:29 70° ESE 22:41:54 10° NNE
Cosmos 1000 Rocket 4.5 22:34:38 22° S 22:38:47 70° E 22:45:03 10° NNE
Cosmos 2227 Rocket 4.3 22:34:15 10° WSW 22:39:02 28° WNW 22:43:50 10° N
Cosmos 1459 Rocket 4.1 22:33:30 10° N 22:39:44 60° E 22:42:29 33° SSE
YAOGAN 6 4.3 22:37:40 16° SSW 22:39:52 29° W 22:43:05 10° NW
Cosmos 1726 4.0 22:38:20 10° NNE 22:40:16 18° ENE 22:40:16 18° ENE
Cosmos 1908 3.2 22:39:38 10° N 22:43:29 61° E 22:43:52 57° ESE
H-2A R/B 4.1 22:43:40 14° ENE 22:43:48 14° ENE 22:46:05 10° NE
Cosmos 1674 2.7 22:46:51 44° SSW 22:47:56 75° W 22:51:43 10° N
Terra 3.2 22:48:44 23° ENE 22:49:13 23° ENE 22:52:55 10° NNE
SL-16 R/B 2.2 22:44:33 10° NNW 22:50:14 73° ENE 22:52:09 42° SE
Cosmos 2173 Rocket 3.9 22:44:16 10° N 22:50:26 73° E 22:53:02 37° SSE
KORONAS-FOTON 3.6 22:51:34 73° SE 22:51:43 75° E 22:55:32 10° N
ARGOS 3.2 22:57:54 39° S 23:00:00 78° WSW 23:05:26 10° NNW
RESURS DK-1 4.4 22:59:13 10° NNE 23:01:57 17° ENE 23:01:57 17° ENE
Cosmos 1802 Rocket 3.9 22:57:08 10° N 23:03:17 80° E 23:05:24 44° SSE
H-2A R/B 2.0 23:03:07 52° SE 23:04:22 73° ENE 23:09:44 10° N
Cosmos 2333 Rocket 4.3 23:03:00 10° WNW 23:06:51 19° W 23:10:42 10° SW
Cosmos 1725 Rocket 4.2 23:03:58 10° N 23:10:01 50° E 23:11:11 44° ESE
EO 1 Delta rocket 3.8 23:12:23 64° SSE 23:13:09 84° ENE 23:17:47 10° N
Cosmos 468 Rocket 4.4 23:12:15 10° N 23:17:09 44° ENE 23:17:22 44° ENE
Cosmos 1818 3.4 23:12:00 10° NNW 23:17:27 80° ENE 23:18:13 65° SE
Cosmos 2227 4.2 23:15:28 33° SSW 23:18:09 82° WNW 23:23:54 10° NNE
IGS 5A 4.4 23:19:32 38° NE 23:19:32 38° NE 23:22:48 10° N
OAO 1 Rocket 4.3 23:16:25 10° WSW 23:21:48 89° N 23:23:07 53° ENE
SL-19 R/B 4.2 23:18:34 10° NNE 23:23:51 59° ESE 23:23:54 59° ESE
SL-14 R/B 3.9 23:27:46 53° N 23:27:46 53° N 23:30:52 10° N
Cosmos 1328 4.4 23:28:45 54° N 23:28:45 54° N 23:31:55 10° N
deb Chang Zheng 4 4.4 23:24:14 10° NNE 23:27:15 39° NE 23:27:15 39° NE
Tiangong 1 4.0 23:28:45 10° NW 23:30:19 14° N 23:30:19 14° N
SPOT 5 3.9 23:30:25 33° WSW 23:31:21 36° W 23:35:52 10° NNW
DMSP B5D2-2 4.3 23:28:27 10° N 23:33:38 66° WNW 23:34:52 49° SW
Cosmos 1864 Rocket 4.4 23:28:23 10° N 23:34:47 82° E 23:35:50 64° SSE
Cosmos 2016 Rocket 4.3 23:34:27 10° NNW 23:40:37 60° W 23:42:12 46° SW
Sakura Rocket 4.5 23:35:29 10° WSW 23:40:02 38° SW 23:40:02 38° SW
Lacrosse 5 3.2 23:37:27 10° NNW 23:41:51 29° NE 23:42:29 28° NE
Cosmos 1500 Rocket 4.2 23:49:23 55° N 23:49:23 55° N 23:52:56 10° N
Cosmos 1300 4.3 23:52:05 10° NNW 23:54:28 33° NW 23:54:28 33° NW
